Location: Forest Hills
(36.0651°N, 86.8403°W)
Time: 00:05:18
(UTC+00:00)

ARIANE 6 FM1 Upper Stage - Pass Details

Date: 24 January 2026
Orbit: 522 x 609 km, 62.0° (Epoch: 10 February)

Event Time Altitude Azimuth Distance (km) Brightness Sun altitude
Rises 23:53:31 0° 224° (SW) 2,726 7.3 -9.9°
Reaches altitude 10° 23:55:48 10° 230° (SW) 1,820 6.4 -10.3°
Maximum altitude 23:59:46 50° 306° (NW) 695 3.4 -11.1°
Drops below altitude 10° 00:03:41 10° 23° (NNE) 1,786 4.9 -11.9°
Enters shadow 00:04:21 - 25° (NNE) 2,046 5.2 -12.0°
